Regional Weather Roundup
Issued by NWS

Home | Current Version | Previous Version | Text Only | Print | Product List | Glossary Off
Versions: 1 2 3 4 5 6 7 8 9 10 11 12 13 14 15 16 17 18 19 20 21 22 23 24 25 26 27 28 29 30 31 32 33 34 35 36 37 38 39 40 41 42 43 44 45 46 47 48 49 50

000
ASUS43 KLOT 241203
RWRIL

ILLINOIS REGIONAL WEATHER ROUNDUP
NATIONAL WEATHER SERVICE CHICAGO/ROMEOVILLE IL
600 AM CST FRI NOV 24 2017

NOTE: "FAIR" INDICATES FEW OR NO CLOUDS BELOW 12,000 FEET WITH NO
SIGNIFICANT WEATHER AND/OR OBSTRUCTIONS TO VISIBILITY.

* THESE STATIONS ARE NOT UNDER NWS QUALITY CONTROL. THEY ALSO MAY NOT
  REPORT WEATHER SUCH AS PRECIPITATION OR FOG.

ILZ001-002-007-009-015-016-024-241300-
NORTHWEST ILLINOIS

CITY           SKY/WX    TMP DP  RH WIND       PRES   REMARKS
MOLINE         CLEAR     44  32  62 S6        29.70F
6HR MIN TEMP:  36; 6HR MAX TEMP:  44;

STERLING*      CLOUDY    37  30  75 VRB5      29.74F WCI  33
SAVANNA*       CLEAR     33  29  86 SE8       29.71F WCI  26
$$

ILZ003-004-008-010-011-017-018-241300-
NORTH CENTRAL ILLINOIS

CITY           SKY/WX    TMP DP  RH WIND       PRES   REMARKS
ROCKFORD       PTCLDY    36  30  79 S8        29.75F WCI  30
6HR MIN TEMP:  33; 6HR MAX TEMP:  49;

FREEPORT*      CLEAR     38  30  73 S15G25    29.71F WCI  30
ROCHELLE*      PTCLDY    33  30  89 S10       29.75F WCI  25
DE KALB*       MOCLDY    32  29  88 S13       29.76F WCI  22
PERU*          PTCLDY    32  28  83 S8        29.79F WCI  25
$$

ILZ005-006-012>014-019>023-241300-
NORTHEAST ILLINOIS

CITY           SKY/WX    TMP DP  RH WIND       PRES   REMARKS
CHICAGO-OHARE  PTCLDY    35  28  75 S6        29.76F WCI  30
6HR MIN TEMP:  32; 6HR MAX TEMP:  37;

CHICAGO-MIDWAY NOT AVBL
AURORA         PTCLDY    32  27  81 S3        29.78F
6HR MIN TEMP:  28; 6HR MAX TEMP:  32;

LANSING*       CLOUDY    32  28  88 S6        29.82F WCI  26
JOLIET*        PTCLDY    34  30  86 S5        29.80F WCI  30
WAUKEGAN       CLEAR     38  29  70 SW15      29.72F WCI  29
6HR MIN TEMP:  32; 6HR MAX TEMP:  38;

DUPAGE AIRPORT PTCLDY    33  29  85 S12       29.77F WCI  24
6HR MIN TEMP:  27; 6HR MAX TEMP:  33;

KANKAKEE*      PTCLDY    32  26  80 S7        29.84F WCI  26
WHEELING       CLEAR     38  29  70 S8        29.77F WCI  32
6HR MIN TEMP:  29; 6HR MAX TEMP:  38;

MORRIS*        PTCLDY    31  27  86 S7        29.79F WCI  24
ROMEOVILLE*    PTCLDY    32  29  88 S8        29.79F WCI  25
NORTHERLY ISL    N/A     37  27  67 SE6         N/A  WCI  32
$$

LMZ740>746-241300-
SOUTHERN LAKE MICHIGAN

STATION/POSITION SKY/WX   TEMP    WIND        PRES    VSBY  WAVE
                          AIR SEA DIR/SP/G                  HT/PER
                          (F)     (DEG/KT/KT) (MB)    (MI)  (FT/S)
SOUTHERN BUOY              44 47  220/ 19/ 23 1008.2          4/ 5
HARRISON CRIB              40     200/ 16/ 18   N/A
BURNHAM HARBOR             38     250/  6/  9   N/A
CALUMET HARBOR             36     200/  9/ 11 1008.6F
BURNS HARBOR               36     190/ 13/ 16 1010.2F
MICHIGAN CITY              35     170/  8/ 12   N/A
$$

ILZ025>027-034>036-040-047-049-050-058-095>099-241300-
WEST-CENTRAL ILLINOIS

CITY           SKY/WX    TMP DP  RH WIND       PRES   REMARKS
QUINCY         PTCLDY    41  33  73 S10       29.78F
GALESBURG*     CLOUDY    37  32  81 SE8       29.77F WCI  31
MACOMB*        CLOUDY    36  32  83 S5        29.80F WCI  32
JACKSONVILLE*  CLOUDY    39  30  69 S8        29.82F WCI  33
PITTSFIELD*    PTCLDY    42  33  69 S7        29.82F
$$

ILZ028>032-037-038-041>044-048-051>054-059>061-241300-
CENTRAL ILLINOIS

CITY           SKY/WX    TMP DP  RH WIND       PRES   REMARKS
PONTIAC        PTCLDY    32  30  94 S7        29.83F WCI  26
BLOOMINGTON    CLEAR     33  28  81 S10       29.83F WCI  25
DECATUR        PTCLDY    32  27  81 S5        29.87R WCI  27
PEORIA         PTCLDY    36  30  79 S7        29.81F WCI  30
6HR MIN TEMP:  31; 6HR MAX TEMP:  36;

LACON*         CLOUDY    37  30  76 S7        29.78F WCI  31
LINCOLN*       CLOUDY    32  29  88 CALM      29.85S
SPRINGFIELD    PTCLDY    39  30  70 S8        29.84F WCI  33
6HR MIN TEMP:  31; 6HR MAX TEMP:  40;

TAYLORVILLE    PTCLDY    34  28  80 S8        29.86S WCI  27
6HR MIN TEMP:  31; 6HR MAX TEMP:  35;

$$

ILZ033-039-045-046-055>057-062-063-241300-
EAST-CENTRAL ILLINOIS

CITY           SKY/WX    TMP DP  RH WIND       PRES   REMARKS
CHAMPAIGN      PTCLDY    32  27  81 S7        29.88S WCI  26
DANVILLE*      PTCLDY    32  26  78 S5        29.86S WCI  27
RANTOUL*       CLOUDY    32  29  89 S7        29.86F WCI  26
MATTOON        PTCLDY    34  27  75 S10       29.87F WCI  26
PARIS*         CLOUDY    31  27  86 SE6       29.90S WCI  25
$$

ILZ079-100>102-241300-
SOUTHWEST ILLINOIS

CITY           SKY/WX    TMP DP  RH WIND       PRES   REMARKS
ALTON          MOCLDY    33  30  87 SE5       29.86F WCI  29
BELLEVILLE     MOCLDY    33  27  76 S3        29.87S
CAHOKIA*       CLOUDY    33  27  78 CALM      29.87F
SPARTA*        MOCLDY    38  28  69 S5        29.91S WCI  34
$$

ILZ064>066-069>071-074>076-080>082-084>086-088>090-092>094-241300-
SOUTH-CENTRAL ILLINOIS

CITY           SKY/WX    TMP DP  RH WIND       PRES   REMARKS
CARBONDALE     CLOUDY    35  28  75 S7        29.93S WCI  29
6HR MIN TEMP:  33; 6HR MAX TEMP:  40;

CAIRO*         CLOUDY    36  28  72 S3        29.96S
EFFINGHAM*     PTCLDY    31  28  87 E3        29.91F
MARION         CLOUDY    37  28  72 S7        29.93S WCI  31
MT. VERNON     PTCLDY    28  26  92 CALM      29.92S
CENTRALIA*     CLOUDY    36  30  79 S8        29.89F WCI  30
SALEM*         PTCLDY    37  28  72 S5        29.89F WCI  33
METROPOLIS*    CLOUDY    29  26  89 CALM      29.97R
$$

ILZ067-068-072-073-078-083-087-091-241300-
SOUTHEAST ILLINOIS

CITY           SKY/WX    TMP DP  RH WIND       PRES   REMARKS
LAWRENCEVILLE  CLOUDY    33  25  72 S5        29.94S WCI  29
FLORA*         CLOUDY    31  27  85 S3        29.92S
FAIRFIELD*     PTCLDY    34  27  74 CALM      29.92S
HARRISBURG*    PTCLDY    32  28  85 CALM      29.94S
ROBINSON*      CLOUDY    29  24  81 S5        29.94F WCI  24
CARMI*         CLOUDY    30  27  86 SE7       29.94S WCI  23
$$

ABBREVIATIONS USED IN REMARKS
   TC - TEMPERATURE IN CELSIUS
  WCI - WIND CHILL INDEX
   HX - HEAT INDEX
  VSB - VISIBILITY
$$




USA.gov is the U.S. government's official web portal to all federal, state and local government web resources and services.